EW7239 Weather Reports


time (UTC)temp
F
wind
direction
speed
knots
gust
knots
rain 1hr
in
rain 24hr
in
rain mn
in
humidity
%
barometer
mb
20260901113045 65 223 0.9 2.6 0.00 0.00 0.00 84 1015.0
20260901112544 65 223 0.9 3.5 0.00 0.00 0.00 84 1015.0
20260901112041 65 223 1.7 3.5 0.00 0.00 0.00 83 1014.9
20260901111541 65 223 1.7 3.5 0.00 0.00 0.00 83 1015.0
20260901110536 65 223 0.9 3.5 0.00 0.00 0.00 83 1015.0
20260901110038 65 223 0.9 2.6 0.00 0.00 0.00 83 1015.0
20260901105534 65 223 0.0 2.6 0.00 0.00 0.00 83 1015.1
20260901105033 66 223 0.0 1.7 0.00 0.00 0.00 83 1015.0
20260901104533 66 223 0.9 2.6 0.00 0.00 0.00 83 1015.0
20260901104027 66 223 0.9 2.6 0.00 0.00 0.00 82 1014.9
20260901103525 66 223 0.9 1.7 0.00 0.00 0.00 83 1015.0
20260901103025 66 223 0.9 1.7 0.00 0.00 0.00 82 1014.9
20260901102524 66 223 0.0 1.7 0.00 0.00 0.00 82 1014.9
20260901102252 66 223 0.0 1.7 0.00 0.00 0.00 82 1014.9
20260901101521 66 223 0.0 1.7 0.00 0.00 0.00 82 1015.0
20260901101017 66 223 0.9 2.6 0.00 0.00 0.00 82 1014.8
20260901100531 66 223 0.9 2.6 0.00 0.00 0.00 82 1014.9
20260901100017 66 223 0.9 1.7 0.00 0.00 0.00 82 1015.1
20260901095516 66 223 0.0 1.7 0.00 0.00 0.00 81 1015.0
20260901095248 66 223 0.0 0.9 0.00 0.00 0.00 81 1015.0
20260901094517 66 223 0.0 0.9 0.00 0.00 0.00 81 1015.0
20260901094246 66 223 0.0 1.7 0.00 0.00 0.00 80 1015.0
20260901093514 66 223 0.0 1.7 0.00 0.00 0.00 81 1014.9
20260901093244 67 223 0.0 1.7 0.00 0.00 0.00 80 1014.9
20260901092512 67 223 0.0 1.7 0.00 0.00 0.00 80 1014.9
20260901092009 67 223 0.9 1.7 0.00 0.00 0.00 80 1014.9
20260901091509 67 223 0.9 3.5 0.00 0.00 0.00 80 1014.9
20260901091237 67 223 0.9 3.5 0.00 0.00 0.00 80 1014.9
20260901090506 67 223 0.9 3.5 0.00 0.00 0.00 80 1014.8
20260901090006 67 223 0.9 2.6 0.00 0.00 0.00 80 1014.8
20260901085505 67 223 0.9 2.6 0.00 0.00 0.00 79 1014.8
20260901085236 67 223 0.9 2.6 0.00 0.00 0.00 79 1014.8
20260901084503 67 223 0.9 2.6 0.00 0.00 0.00 79 1014.8
20260901084233 67 223 0.9 3.5 0.00 0.00 0.00 78 1014.9
20260901083503 67 223 0.9 3.5 0.00 0.00 0.00 78 1014.9
20260901083003 67 223 0.9 3.5 0.00 0.00 0.00 78 1014.9
20260901082503 68 223 0.9 3.5 0.00 0.00 0.00 78 1014.9
20260901082002 68 223 0.9 2.6 0.00 0.00 0.00 77 1014.8
20260901081458 68 223 0.9 2.6 0.00 0.00 0.00 77 1014.8
20260901081000 68 223 1.7 2.6 0.00 0.00 0.00 77 1014.8
20260901080456 68 223 1.7 3.5 0.00 0.00 0.00 76 1014.8
20260901080228 68 223 1.7 3.5 0.00 0.00 0.00 76 1014.9
20260901075724 69 223 1.7 4.3 0.00 0.00 0.00 76 1014.9
20260901075225 69 223 1.7 4.3 0.00 0.00 0.00 75 1015.0
20260901074453 69 223 2.6 4.3 0.00 0.00 0.00 75 1015.0
20260901074217 69 223 2.6 5.2 0.00 0.00 0.00 74 1015.0
20260901073445 69 223 2.6 5.2 0.00 0.00 0.00 74 1014.9
20260901072942 69 223 2.6 5.2 0.00 0.00 0.00 73 1014.9
20260901072445 70 223 2.6 5.2 0.00 0.00 0.00 73 1014.8
20260901071941 70 223 2.6 4.3 0.00 0.00 0.00 72 1014.9
20260901071442 70 223 2.6 4.3 0.00 0.00 0.00 72 1014.7
20260901070940 70 223 2.6 4.3 0.00 0.00 0.00 72 1014.7
20260901070453 70 223 1.7 3.5 0.00 0.00 0.00 71 1014.8
20260901065942 71 223 1.7 3.5 0.00 0.00 0.00 71 1014.8
20260901065435 71 223 1.7 2.6 0.00 0.00 0.00 71 1014.8
20260901064936 71 223 1.7 3.5 0.00 0.00 0.00 70 1014.7
20260901064433 71 223 0.9 3.5 0.00 0.00 0.00 69 1014.7
20260901063934 71 223 0.9 2.6 0.00 0.00 0.00 70 1014.7
20260901063434 71 223 0.9 2.6 0.00 0.00 0.00 70 1014.6
20260901062935 71 223 0.9 2.6 0.00 0.00 0.00 70 1014.7
20260901062433 71 223 1.7 2.6 0.00 0.00 0.00 70 1014.7
20260901062200 71 223 1.7 2.6 0.00 0.00 0.00 69 1014.7
20260901061428 71 223 1.7 2.6 0.00 0.00 0.00 69 1014.7
20260901060927 71 223 1.7 4.3 0.00 0.00 0.00 69 1014.7
20260901060428 72 223 1.7 4.3 0.00 0.00 0.00 68 1014.7
20260901055926 72 223 1.7 4.3 0.00 0.00 0.00 68 1014.7
20260901055425 72 223 1.7 3.5 0.00 0.00 0.00 68 1014.7
20260901054925 72 223 1.7 4.3 0.00 0.00 0.00 68 1014.7
20260901054425 72 223 1.7 4.3 0.00 0.00 0.00 67 1014.7
20260901053927 72 223 1.7 4.3 0.00 0.00 0.00 67 1014.7
20260901053426 72 223 2.6 3.5 0.00 0.00 0.00 67 1014.7
20260901052425 72 223 2.6 5.2 0.00 0.00 0.00 67 1014.6
20260901051926 72 223 1.7 5.2 0.00 0.00 0.00 67 1014.6
20260901051658 72 222 1.7 3.5 0.00 0.00 0.00 67 1014.5
20260901050926 72 222 1.7 3.5 0.00 0.00 0.00 67 1014.5
20260901050425 72 222 1.7 3.5 0.00 0.00 0.00 67 1014.5
20260901045925 72 222 0.9 3.5 0.00 0.00 0.00 67 1014.5
20260901045423 72 222 0.9 2.6 0.00 0.00 0.00 66 1014.5
20260901045155 72 222 0.9 2.6 0.00 0.00 0.00 66 1014.5
20260901044424 72 222 1.7 2.6 0.00 0.00 0.00 65 1014.5
20260901043925 72 222 1.7 4.3 0.00 0.00 0.00 65 1014.4
20260901043422 72 222 2.6 4.3 0.00 0.00 0.00 65 1014.3
20260901042921 73 222 1.7 4.3 0.00 0.00 0.00 64 1014.3
20260901042421 73 222 0.9 4.3 0.00 0.00 0.00 64 1014.3
20260901042151 73 222 1.7 3.5 0.00 0.00 0.00 63 1014.2
20260901041417 73 222 1.7 3.5 0.00 0.00 0.00 63 1014.1
20260901040917 73 222 2.6 6.1 0.00 0.00 0.00 62 1014.0
20260901040417 74 222 3.5 6.1 0.00 0.00 0.00 62 1013.8
20260901040145 74 221 4.3 6.1 0.00 0.00 0.00 62 1013.7
20260901035412 74 224 3.5 7.0 0.00 0.00 0.00 62 1013.6
20260901034913 74 224 3.5 7.8 0.00 0.00 0.00 61 1013.6
20260901034409 74 224 4.3 7.8 0.00 0.00 0.00 61 1013.5
20260901033910 75 227 3.5 7.0 0.00 0.00 0.00 61 1013.3
20260901033410 75 242 4.3 9.6 0.00 0.00 0.00 61 1013.1
20260901032910 75 229 5.2 9.6 0.00 0.00 0.00 60 1013.1
20260901032405 75 230 4.3 8.7 0.00 0.00 0.00 60 1013.0
20260901031907 76 227 4.3 9.6 0.00 0.00 0.00 60 1012.9
20260901031404 76 226 5.2 9.6 0.00 0.00 0.00 59 1012.9
20260901030904 76 221 6.1 9.6 0.00 0.00 0.00 59 1013.0
20260901030401 76 219 6.1 11.3 0.00 0.00 0.00 58 1012.9
20260901025903 76 246 6.1 11.3 0.00 0.00 0.00 57 1012.8
20260901025402 77 226 6.1 11.3 0.00 0.00 0.00 57 1012.7
20260901024902 77 217 6.1 9.6 0.00 0.00 0.00 56 1012.7
20260901024403 77 219 6.1 10.4 0.00 0.00 0.00 55 1012.8
20260901023857 78 223 6.1 10.4 0.00 0.00 0.00 55 1012.7
20260901023357 78 219 6.1 8.7 0.00 0.00 0.00 53 1012.7
20260901022857 78 215 5.2 8.7 0.00 0.00 0.00 52 1012.6
20260901021859 79 226 6.1 10.4 0.00 0.00 0.00 49 1012.5
20260901021407 80 223 6.1 10.4 0.00 0.00 0.00 47 1012.5
20260901020854 80 223 6.1 10.4 0.00 0.00 0.00 45 1012.3
20260901020354 80 218 7.0 10.4 0.00 0.00 0.00 43 1012.3
20260901015852 81 207 6.1 9.6 0.00 0.00 0.00 41 1012.2
20260901015350 81 223 6.1 12.2 0.00 0.00 0.00 39 1012.3
20260901014851 82 209 6.1 12.2 0.00 0.00 0.00 37 1012.3
20260901014348 83 217 5.2 10.4 0.00 0.00 0.00 36 1012.3
20260901014120 83 227 6.1 10.4 0.00 0.00 0.00 35 1012.3
20260901013346 83 221 6.1 10.4 0.00 0.00 0.00 36 1012.3
20260901012846 83 231 7.0 10.4 0.00 0.00 0.00 35 1012.3
20260901012617 83 222 7.0 12.2 0.00 0.00 0.00 35 1012.3
20260901011847 84 218 7.0 12.2 0.00 0.00 0.00 35 1012.2
20260901011343 85 230 6.1 10.4 0.00 0.00 0.00 37 1012.2
20260901011113 85 233 7.0 13.0 0.00 0.00 0.00 36 1012.2
20260901010339 85 224 7.0 13.0 0.00 0.00 0.00 36 1012.2
20260901005839 85 226 7.0 13.9 0.00 0.00 0.00 36 1012.2
20260901005612 85 227 7.0 13.9 0.00 0.00 0.00 35 1012.2
20260901004838 86 242 7.0 13.0 0.00 0.00 0.00 34 1012.2
20260901004338 87 219 7.0 13.9 0.00 0.00 0.00 34 1012.2
20260901003836 87 238 7.0 13.9 0.00 0.00 0.00 34 1012.1
20260901003336 87 228 7.8 14.8 0.00 0.00 0.00 34 1012.2
20260901003105 86 256 7.8 14.8 0.00 0.00 0.00 35 1012.2
20260901002335 87 232 7.0 14.8 0.00 0.00 0.00 33 1012.3
20260901002106 88 252 7.0 13.9 0.00 0.00 0.00 34 1012.2
20260901001329 88 224 7.0 13.9 0.00 0.00 0.00 34 1012.3
20260901000831 88 254 7.0 13.9 0.00 0.00 0.00 34 1012.2
20260901000331 88 246 7.0 13.9 0.00 0.00 0.00 33 1012.2
20260831235831 89 273 7.0 14.8 0.00 0.00 0.00 30 1012.3
20260831235326 88 232 6.1 14.8 0.00 0.00 0.00 31 1012.2
20260831234827 89 215 6.1 14.8 0.00 0.00 0.00 31 1012.2
20260831234327 89 240 7.0 14.8 0.00 0.00 0.00 32 1012.1
20260831233826 89 226 6.1 13.0 0.00 0.00 0.00 30 1012.2
20260831233552 89 213 6.1 10.4 0.00 0.00 0.00 32 1012.2
20260831232823 89 225 7.8 13.9 0.00 0.00 0.00 34 1012.2
20260831232323 88 218 8.7 13.9 0.00 0.00 0.00 33 1012.2
20260831231823 88 222 8.7 14.8 0.00 0.00 0.00 34 1012.2
20260831231317 89 217 9.6 16.5 0.00 0.00 0.00 33 1012.3
20260831230818 89 228 8.7 16.5 0.00 0.00 0.00 35 1012.3
20260831230332 89 221 8.7 13.9 0.00 0.00 0.00 36 1012.3
20260831225818 89 219 7.8 13.9 0.00 0.00 0.00 36 1012.2
20260831225314 89 213 7.8 13.9 0.00 0.00 0.00 37 1012.2
20260831224814 89 234 7.8 13.9 0.00 0.00 0.00 38 1012.2
20260831224545 89 214 8.7 13.0 0.00 0.00 0.00 38 1012.3
20260831223815 89 219 8.7 13.0 0.00 0.00 0.00 38 1012.3
20260831223311 89 226 7.8 13.0 0.00 0.00 0.00 38 1012.3
20260831223041 90 230 7.8 13.0 0.00 0.00 0.00 38 1012.3
20260831222310 91 219 7.0 10.4 0.00 0.00 0.00 38 1012.5
20260831221811 91 245 7.0 14.8 0.00 0.00 0.00 38 1012.6
20260831221305 91 221 6.1 14.8 0.00 0.00 0.00 38 1012.6
20260831220806 91 219 6.1 11.3 0.00 0.00 0.00 37 1012.7
20260831220306 91 226 7.0 12.2 0.00 0.00 0.00 38 1012.8
20260831215806 91 236 6.1 12.2 0.00 0.00 0.00 35 1012.8
20260831214802 91 225 6.1 11.3 0.00 0.00 0.00 35 1012.9
20260831214533 91 227 6.1 11.3 0.00 0.00 0.00 35 1013.0
20260831213802 91 218 6.1 11.3 0.00 0.00 0.00 33 1013.0
20260831213529 92 205 6.1 11.3 0.00 0.00 0.00 33 1013.0
20260831212759 91 245 6.1 11.3 0.00 0.00 0.00 31 1013.0
20260831212258 92 219 5.2 11.3 0.00 0.00 0.00 33 1013.1
20260831211758 91 239 6.1 10.4 0.00 0.00 0.00 32 1013.3
20260831211524 91 213 6.1 9.6 0.00 0.00 0.00 33 1013.2
20260831210754 91 225 6.1 10.4 0.00 0.00 0.00 32 1013.3
20260831210254 91 211 6.1 11.3 0.00 0.00 0.00 32 1013.3
20260831210025 91 242 6.1 11.3 0.00 0.00 0.00 31 1013.3
20260831205249 91 223 6.1 10.4 0.00 0.00 0.00 32 1013.4
20260831205021 91 224 5.2 10.4 0.00 0.00 0.00 34 1013.4
20260831204251 91 263 5.2 10.4 0.00 0.00 0.00 34 1013.4
20260831203750 91 219 6.1 8.7 0.00 0.00 0.00 34 1013.4
20260831203246 90 211 6.1 10.4 0.00 0.00 0.00 37 1013.4
20260831202746 91 219 6.1 10.4 0.00 0.00 0.00 37 1013.5
20260831202246 91 235 5.2 12.2 0.00 0.00 0.00 36 1013.5
20260831201746 91 190 4.3 12.2 0.00 0.00 0.00 34 1013.5
20260831201243 91 252 5.2 10.4 0.00 0.00 0.00 37 1013.5
20260831200513 90 268 3.5 10.4 0.00 0.00 0.00 38 1013.5
20260831195743 89 227 4.3 7.0 0.00 0.00 0.00 41 1013.5
20260831195510 89 215 5.2 8.7 0.00 0.00 0.00 39 1013.6
20260831194738 90 223 4.3 8.7 0.00 0.00 0.00 38 1013.7
20260831194239 89 235 3.5 9.6 0.00 0.00 0.00 40 1013.7
20260831193738 89 250 4.3 9.6 0.00 0.00 0.00 40 1013.7
20260831193234 88 217 4.3 8.7 0.00 0.00 0.00 41 1013.7
20260831192734 88 219 4.3 7.0 0.00 0.00 0.00 43 1013.8
20260831192235 87 223 3.5 7.8 0.00 0.00 0.00 44 1013.9
20260831192006 87 216 2.6 7.8 0.00 0.00 0.00 47 1013.9
20260831191229 87 217 3.5 7.8 0.00 0.00 0.00 47 1014.0
20260831190730 86 212 3.5 8.7 0.00 0.00 0.00 47 1014.1
20260831190502 85 232 4.3 9.6 0.00 0.00 0.00 48 1014.2
20260831185731 85 222 4.3 9.6 0.00 0.00 0.00 50 1014.2
20260831185226 85 219 3.5 7.0 0.00 0.00 0.00 52 1014.2
20260831184957 85 229 4.3 7.0 0.00 0.00 0.00 52 1014.2
20260831184226 85 221 3.5 7.0 0.00 0.00 0.00 52 1014.3
20260831183726 85 229 3.5 6.1 0.00 0.00 0.00 53 1014.3
20260831183454 85 225 2.6 6.1 0.00 0.00 0.00 55 1014.3
20260831182722 83 228 2.6 6.1 0.00 0.00 0.00 58 1014.3
20260831182222 83 225 3.5 7.0 0.00 0.00 0.00 59 1014.3
20260831181722 83 228 3.5 7.0 0.00 0.00 0.00 59 1014.3
20260831181217 82 213 4.3 6.1 0.00 0.00 0.00 61 1014.3
20260831180718 82 199 3.5 6.1 0.00 0.00 0.00 60 1014.4
20260831180218 81 206 3.5 6.1 0.00 0.00 0.00 62 1014.4
20260831175718 81 208 3.5 7.0 0.00 0.00 0.00 62 1014.4
20260831175214 81 207 3.5 7.0 0.00 0.00 0.00 63 1014.4
20260831174715 81 212 3.5 7.0 0.00 0.00 0.00 63 1014.5
20260831174214 81 226 2.6 6.1 0.00 0.00 0.00 64 1014.5
20260831173715 80 227 2.6 5.2 0.00 0.00 0.00 65 1014.5
20260831173210 80 227 2.6 6.1 0.00 0.00 0.00 67 1014.4
20260831172711 79 228 3.5 6.1 0.00 0.00 0.00 67 1014.4
20260831172210 79 229 2.6 5.2 0.00 0.00 0.00 67 1014.4
20260831171711 78 226 2.6 5.2 0.00 0.00 0.00 70 1014.4
20260831171211 78 226 2.6 5.2 0.00 0.00 0.00 71 1014.4
20260831170706 78 226 2.6 5.2 0.00 0.00 0.00 71 1014.4
20260831170206 77 235 2.6 5.2 0.00 0.00 0.00 71 1014.3
20260831165706 77 236 1.7 5.2 0.00 0.00 0.00 72 1014.3
20260831165202 77 237 2.6 5.2 0.00 0.00 0.00 73 1014.2
20260831164936 76 237 2.6 5.2 0.00 0.00 0.00 71 1014.2
20260831164202 77 241 1.7 4.3 0.00 0.00 0.00 73 1014.2
20260831163159 76 246 2.6 5.2 0.00 0.00 0.00 73 1014.1
20260831162658 76 247 2.6 5.2 0.00 0.00 0.00 74 1014.1
20260831162158 76 249 2.6 5.2 0.00 0.00 0.00 74 1014.2
20260831161929 75 250 1.7 5.2 0.00 0.00 0.00 76 1014.1
20260831161424 75 250 1.7 4.3 0.00 0.00 0.00 77 1014.1
20260831160654 74 250 1.7 4.3 0.00 0.00 0.00 78 1014.2
20260831160155 74 250 1.7 4.3 0.00 0.00 0.00 78 1014.2
20260831155655 74 250 1.7 3.5 0.00 0.00 0.00 80 1014.2
20260831155152 74 250 0.9 3.5 0.00 0.00 0.00 80 1014.2
20260831154651 73 250 1.7 3.5 0.00 0.00 0.00 80 1014.1
20260831154151 73 250 1.7 3.5 0.00 0.00 0.00 81 1014.2
20260831153651 73 250 0.9 3.5 0.00 0.00 0.00 81 1014.2
20260831153146 73 250 0.9 3.5 0.00 0.00 0.00 82 1014.2
20260831152646 73 250 0.9 2.6 0.00 0.00 0.00 82 1014.2
20260831152146 72 250 0.0 2.6 0.00 0.00 0.00 83 1014.2
20260831151646 72 250 0.0 1.7 0.00 0.00 0.00 83 1014.2
20260831151141 72 250 0.0 3.5 0.00 0.00 0.00 84 1014.1
20260831150655 71 250 0.9 3.5 0.00 0.00 0.00 83 1014.1
20260831150142 71 250 0.0 2.6 0.00 0.00 0.00 84 1014.1
20260831145645 71 250 0.0 1.7 0.00 0.00 0.00 84 1014.1
20260831145137 71 250 0.0 2.6 0.00 0.00 0.00 83 1014.1
20260831144638 71 250 0.0 2.6 0.00 0.00 0.00 83 1014.1
20260831144138 70 250 0.0 1.7 0.00 0.00 0.00 83 1014.0
20260831143638 70 250 0.9 2.6 0.00 0.00 0.00 83 1014.0
20260831142635 70 250 0.0 1.7 0.00 0.00 0.00 83 1013.9
20260831142134 69 250 0.0 0.0 0.00 0.00 0.00 83 1013.9
20260831141635 69 250 0.0 0.0 0.00 0.00 0.00 83 1013.9
20260831141130 69 250 0.0 2.6 0.00 0.00 0.00 83 1013.8
20260831140630 69 250 0.9 2.6 0.00 0.00 0.00 84 1013.7
20260831140131 69 250 0.9 2.6 0.00 0.00 0.00 84 1013.7
20260831135630 69 250 1.7 3.5 0.00 0.00 0.00 84 1013.6
20260831135126 69 250 1.7 3.5 0.00 0.00 0.00 84 1013.5
20260831134626 69 250 1.7 3.5 0.00 0.00 0.00 83 1013.4
20260831134127 69 250 1.7 3.5 0.00 0.00 0.00 84 1013.4
20260831133858 69 250 2.6 3.5 0.00 0.00 0.00 84 1013.3
20260831133121 69 250 1.7 3.5 0.00 0.00 0.00 84 1013.2
20260831132623 69 250 0.9 3.5 0.00 0.00 0.00 84 1013.2
20260831132122 69 250 0.0 2.6 0.00 0.00 0.00 84 1013.2
20260831131622 69 250 0.0 0.0 0.00 0.00 0.00 84 1013.2
20260831131117 68 250 0.0 0.0 0.00 0.00 0.00 84 1013.2
20260831130849 68 250 0.0 0.0 0.00 0.00 0.00 84 1013.2
20260831130350 69 250 0.0 0.0 0.00 0.00 0.00 84 1013.2
20260831125114 69 250 0.0 0.0 0.00 0.00 0.00 84 1013.1
20260831124614 69 250 0.0 0.0 0.00 0.00 0.00 84 1013.1
20260831124345 69 250 0.0 0.0 0.00 0.00 0.00 84 1013.1
20260831123845 69 250 0.0 0.9 0.00 0.00 0.00 84 1013.0
20260831123341 69 250 0.0 0.9 0.00 0.00 0.00 84 1012.9
20260831122610 69 250 0.0 0.0 0.00 0.00 0.00 84 1012.9
20260831122110 69 250 0.0 0.0 0.00 0.00 0.00 84 1013.0
20260831121842 69 250 0.0 0.0 0.00 0.00 0.00 84 1012.9
20260831121106 69 250 0.0 0.0 0.00 0.00 0.00 84 1013.0
20260831120608 69 250 0.0 0.0 0.00 0.00 0.00 84 1013.0
20260831120340 69 250 0.0 0.0 0.00 0.00 0.00 84 1013.0
20260831115102 69 250 0.0 0.0 0.00 0.00 0.00 84 1013.1
20260831114834 69 250 0.0 0.0 0.00 0.00 0.00 84 1013.1
20260831114102 69 250 0.0 0.0 0.00 0.00 0.00 84 1013.1
20260831113603 69 250 0.0 2.6 0.00 0.00 0.00 84 1013.2